TimeEST,TemperatureF,Dew PointF,Humidity,Sea Level PressureIn,VisibilityMPH,Wind Direction,Wind SpeedMPH,Gust SpeedMPH,PrecipitationIn,Events,Conditions,WindDirDegrees,DateUTC
12:52 AM,21.9,1.9,42,30.17,10.0,WSW,8.1,-,N/A,,Clear,250,2013-02-19 05:52:00
1:52 AM,24.1,3.9,42,30.17,10.0,WSW,9.2,-,N/A,,Clear,250,2013-02-19 06:52:00
2:52 AM,26.1,6.1,43,30.17,10.0,WSW,10.4,-,N/A,,Clear,250,2013-02-19 07:52:00
3:52 AM,26.1,7.0,44,30.15,10.0,WSW,5.8,-,N/A,,Clear,250,2013-02-19 08:52:00
4:52 AM,24.1,7.0,48,30.15,10.0,Calm,Calm,-,N/A,,Overcast,0,2013-02-19 09:52:00
5:52 AM,27.0,10.9,51,30.16,10.0,WSW,9.2,-,N/A,,Mostly Cloudy,240,2013-02-19 10:52:00
6:52 AM,27.0,12.0,53,30.14,10.0,SW,3.5,-,N/A,,Partly Cloudy,220,2013-02-19 11:52:00
7:52 AM,30.0,15.1,54,30.12,10.0,SSW,5.8,-,N/A,,Clear,210,2013-02-19 12:52:00
8:52 AM,36.0,21.0,55,30.11,10.0,SW,6.9,-,N/A,,Clear,220,2013-02-19 13:52:00
9:52 AM,39.9,25.0,55,30.10,10.0,SW,10.4,-,N/A,,Clear,220,2013-02-19 14:52:00
10:52 AM,44.1,28.9,55,30.08,10.0,SSW,8.1,-,N/A,,Clear,200,2013-02-19 15:52:00
11:52 AM,45.0,32.0,60,30.05,10.0,SSW,9.2,20.7,N/A,,Clear,200,2013-02-19 16:52:00
1:52 PM,46.0,30.9,56,29.98,10.0,SW,11.5,18.4,N/A,,Partly Cloudy,220,2013-02-19 18:52:00
2:52 PM,45.0,33.1,63,29.96,10.0,Variable,6.9,-,N/A,,Clear,0,2013-02-19 19:52:00
3:52 PM,45.0,34.0,65,29.91,10.0,South,6.9,-,N/A,,Clear,190,2013-02-19 20:52:00
4:52 PM,43.0,36.0,76,29.88,7.0,South,8.1,-,0.00,Rain,Light Rain,190,2013-02-19 21:52:00
5:52 PM,42.1,37.9,85,29.83,8.0,SE,6.9,-,0.02,Rain,Light Rain,140,2013-02-19 22:52:00
6:05 PM,42.8,39.2,87,29.81,10.0,Variable,5.8,-,0.00,,Overcast,0,2013-02-19 23:05:00
6:18 PM,42.8,39.2,87,29.80,10.0,Calm,Calm,-,0.00,,Overcast,0,2013-02-19 23:18:00
7:28 PM,44.6,41.0,87,29.75,5.0,South,10.4,20.7,0.04,Rain,Light Rain,170,2013-02-20 00:28:00
7:52 PM,45.0,42.1,90,29.74,5.0,Variable,6.9,-,0.09,Rain,Rain,0,2013-02-20 00:52:00
8:03 PM,44.6,42.8,93,29.72,2.5,SW,5.8,-,0.07,Rain,Rain,220,2013-02-20 01:03:00
8:11 PM,42.8,39.2,87,29.74,3.0,WSW,12.7,19.6,0.11,Rain,Rain,250,2013-02-20 01:11:00
8:20 PM,42.8,39.2,87,29.73,1.8,SW,8.1,-,0.21,Rain,Heavy Rain,220,2013-02-20 01:20:00
8:26 PM,44.6,42.8,93,29.72,2.5,SSW,9.2,-,0.24,Rain,Rain,200,2013-02-20 01:26:00
8:52 PM,44.1,42.1,93,29.67,7.0,SE,5.8,-,0.28,Rain,Light Rain,130,2013-02-20 01:52:00
9:15 PM,44.6,42.8,93,29.66,10.0,Variable,5.8,-,0.01,Rain,Light Rain,0,2013-02-20 02:15:00
9:28 PM,44.6,42.8,93,29.63,3.0,SSE,8.1,-,0.04,Rain,Light Rain,160,2013-02-20 02:28:00
10:17 PM,44.6,42.8,93,29.63,6.0,SSW,6.9,-,0.07,Rain,Light Rain,210,2013-02-20 03:17:00
10:48 PM,44.6,42.8,93,29.61,10.0,SW,8.1,-,0.09,,Overcast,220,2013-02-20 03:48:00
10:52 PM,45.0,42.1,90,29.62,10.0,SSW,5.8,-,0.09,Rain,Light Rain,200,2013-02-20 03:52:00
11:38 PM,44.6,42.8,93,29.60,6.0,Calm,Calm,-,0.01,Rain,Light Rain,0,2013-02-20 04:38:00
11:44 PM,42.8,41.0,93,29.60,2.5,SSW,3.5,-,0.01,,Overcast,210,2013-02-20 04:44:00
11:46 PM,41.0,41.0,100,29.60,1.8,SSW,3.5,-,0.01,,Overcast,210,2013-02-20 04:46:00
11:52 PM,42.1,39.9,92,29.60,1.5,SSW,3.5,-,0.01,,Overcast,200,2013-02-20 04:52:00
11:54 PM,42.8,41.0,93,29.59,2.0,SSW,3.5,-,N/A,,Overcast,210,2013-02-20 04:54:00
11:57 PM,44.6,42.8,93,29.59,3.0,SSW,4.6,-,0.00,Rain,Light Rain,210,2013-02-20 04:57:00